TOM31G EGCC-LGSK

Flight info

Callsign TOM31G
Flight time N/A
Altitude 33000
Route SANBA N859 HON L15 FINMA DCT CHT DCT ITVIP DCT KONAN DCT KOK UL607 REMBA DCT LIRSU DCT ULNOK DCT VIBOM DCT NOMBO DCT RIDAR DCT RADIZ DCT NEMEK DCT ETOBI DCT MEDUX UM867 KOGAT DCT ERANA UL737 TSL UL617 IBIDI
Aircraft B738/M-SDE2E3FGHIRWXY/LB1

Departure

Time N/A
Airport Manchester Airport (EGCC)

Arrival

Time 2026-05-09 13:04
Airport Skiathos Island National Airport (LGSK)
Time Latitude Longitude Altitude Speed Heading
2026-05-09 12:46 39.38926 23.51542 5527 ft 338 kts 162°
2026-05-09 12:46 39.36709 23.52611 4951 ft 340 kts 161°
2026-05-09 12:46 39.34502 23.53676 4455 ft 338 kts 161°
2026-05-09 12:47 39.32307 23.54734 4112 ft 332 kts 161°
2026-05-09 12:47 39.30212 23.55746 4019 ft 319 kts 161°
2026-05-09 12:47 39.28180 23.56726 3978 ft 305 kts 161°
2026-05-09 12:47 39.26242 23.57661 3970 ft 290 kts 161°
2026-05-09 12:48 39.24392 23.58552 3971 ft 277 kts 161°
2026-05-09 12:48 39.22635 23.59397 3974 ft 264 kts 161°
2026-05-09 12:48 39.20953 23.60206 3972 ft 252 kts 161°
2026-05-09 12:48 39.19334 23.60984 3982 ft 246 kts 162°
2026-05-09 12:49 39.17730 23.61728 4012 ft 245 kts 167°
2026-05-09 12:49 39.16037 23.61831 3989 ft 246 kts 196°
2026-05-09 12:49 39.14445 23.61060 4007 ft 244 kts 206°
2026-05-09 12:49 39.12902 23.60133 3990 ft 245 kts 207°
2026-05-09 12:50 39.11362 23.59191 3992 ft 245 kts 207°
2026-05-09 12:50 39.09820 23.58245 3826 ft 249 kts 207°
2026-05-09 12:50 39.08252 23.57258 3476 ft 251 kts 207°
2026-05-09 12:50 39.06696 23.56264 3134 ft 248 kts 207°
2026-05-09 12:51 39.05163 23.55271 2747 ft 245 kts 207°
2026-05-09 12:51 39.03695 23.54204 2364 ft 240 kts 219°
2026-05-09 12:51 39.02870 23.52440 2137 ft 229 kts 261°
2026-05-09 12:51 39.03128 23.50511 1905 ft 217 kts 300°
2026-05-09 12:52 39.03991 23.48969 1781 ft 213 kts 315°
2026-05-09 12:52 39.05181 23.47853 1713 ft 211 kts 338°
2026-05-09 12:52 39.06571 23.47381 1700 ft 205 kts 359°
2026-05-09 12:52 39.07978 23.47563 1697 ft 204 kts 11°
2026-05-09 12:53 39.09382 23.47884 1699 ft 206 kts 13°
2026-05-09 12:53 39.10776 23.48271 1626 ft 207 kts 13°
2026-05-09 12:53 39.12178 23.48634 1193 ft 199 kts 11°
2026-05-09 12:53 39.13466 23.48936 845 ft 181 kts
2026-05-09 12:54 39.14663 23.49178 588 ft 164 kts
2026-05-09 12:54 39.15728 23.49474 308 ft 150 kts 18°
2026-05-09 12:54 39.16672 23.49903 100 ft 139 kts
2026-05-09 12:54 39.17586 23.50330 233 ft 153 kts 21°
2026-05-09 12:55 39.18647 23.50868 753 ft 172 kts 21°
2026-05-09 12:55 39.19842 23.51394 1245 ft 185 kts 11°
2026-05-09 12:55 39.21121 23.51627 2042 ft 188 kts
2026-05-09 12:55 39.21806 23.51773 2418 ft 191 kts 10°
2026-05-09 12:56 39.22803 23.52049 2943 ft 196 kts 20°
2026-05-09 12:56 39.23835 23.53214 3600 ft 205 kts 66°
2026-05-09 12:56 39.23979 23.55071 3980 ft 224 kts 106°
2026-05-09 12:57 39.23121 23.56770 3989 ft 231 kts 145°
2026-05-09 12:57 39.21781 23.57930 4009 ft 235 kts 147°
2026-05-09 12:57 39.21536 23.58153 4006 ft 235 kts 146°
2026-05-09 12:57 39.20971 23.58680 3987 ft 235 kts 145°
2026-05-09 12:58 39.19682 23.59976 4026 ft 236 kts 142°
2026-05-09 12:58 39.18387 23.61341 3652 ft 252 kts 149°
2026-05-09 12:58 39.16698 23.61872 3434 ft 250 kts 188°
2026-05-09 12:58 39.15132 23.61071 3367 ft 240 kts 211°
2026-05-09 12:59 39.13660 23.60066 3124 ft 239 kts 207°
2026-05-09 12:59 39.12176 23.59121 2874 ft 238 kts 207°
2026-05-09 12:59 39.10708 23.58175 2697 ft 233 kts 207°
2026-05-09 12:59 39.09281 23.57244 2593 ft 226 kts 207°
2026-05-09 13:00 39.07901 23.56315 2527 ft 222 kts 207°
2026-05-09 13:00 39.06538 23.55391 2500 ft 221 kts 207°
2026-05-09 13:00 39.05184 23.54470 2498 ft 220 kts 207°
2026-05-09 13:00 39.03897 23.53425 2475 ft 220 kts 225°
2026-05-09 13:01 39.03154 23.51701 2340 ft 226 kts 259°
2026-05-09 13:01 39.03280 23.49712 2206 ft 227 kts 293°
2026-05-09 13:01 39.04241 23.48149 2028 ft 225 kts 328°
2026-05-09 13:01 39.05704 23.47543 1860 ft 222 kts 358°
2026-05-09 13:02 39.07234 23.47586 1721 ft 219 kts
2026-05-09 13:02 39.08760 23.47733 1677 ft 218 kts
2026-05-09 13:02 39.10181 23.48077 1468 ft 202 kts 17°
2026-05-09 13:02 39.11535 23.48504 1088 ft 196 kts 12°
2026-05-09 13:03 39.12824 23.48802 890 ft 180 kts 10°
2026-05-09 13:03 39.13991 23.49027 773 ft 162 kts
2026-05-09 13:03 39.15085 23.49237 478 ft 154 kts 13°
2026-05-09 13:03 39.16081 23.49625 241 ft 145 kts 20°
2026-05-09 13:04 39.17017 23.50057 41 ft 140 kts 20°
2026-05-09 13:04 39.17801 23.50407 37 ft 77 kts 19°
2026-05-09 13:04 39.18112 23.50547 49 ft 38 kts 19°
2026-05-09 13:04 39.18277 23.50620 54 ft 23 kts 18°
2026-05-09 13:05 39.18389 23.50654 53 ft 9 kts 351°
2026-05-09 13:05 39.18420 23.50669 56 ft 1 kts 103°
2026-05-09 13:05 39.18410 23.50667 57 ft 3 kts 199°
2026-05-09 13:05 39.18353 23.50651 55 ft 15 kts 197°
2026-05-09 13:06 39.18248 23.50606 51 ft 16 kts 199°
2026-05-09 13:06 39.18131 23.50554 50 ft 19 kts 199°
2026-05-09 13:06 39.18008 23.50499 46 ft 19 kts 201°
2026-05-09 13:06 39.17935 23.50424 41 ft 12 kts 242°
2026-05-09 13:07 39.17923 23.50354 40 ft 8 kts 284°
2026-05-09 13:07 39.17943 23.50281 38 ft 7 kts 290°
2026-05-09 13:07 39.17949 23.50258 38 ft 0 kts 289°